Terminal Aerodrome Forecast
Issued by NWS Binghamton, NY

Home | Current Version | Previous Version | Text Only | Print | Product List | Glossary On
Versions: 1 2 3 4 5 6 7 8 9 10 11 12 13 14 15 16 17
000
FTUS41 KBGM 010500
TAFBGM
TAF
KBGM 010538Z 0106/0206 VRB04KT P6SM FEW180
     FM010800 15007KT P6SM OVC070
     FM011100 17008KT P6SM OVC025
      TEMPO 0111/0115 2SM -SN BR OVC015
     FM011500 19008KT 1SM -SN BR OVC007=

USA.gov is the U.S. government's official web portal to all federal, state and local government web resources and services.